KOZAKOV Weather Reports


Display with metric or nautical units.
time (UTC)temp
F
wind
direction
speed
MPH
gust
MPH
rain 1hr
in
rain 24hr
in
rain mn
in
humidity
%
barometer
mb
20260507030017 46 223 7.0 11.0 0.00 0.00 0.00 100
20260507025517 46 205 7.0 9.0 0.00 0.00 0.00 100
20260507025017 46 228 9.0 11.0 0.00 0.00 0.00 100
20260507024518 46 220 7.0 9.0 0.00 0.00 0.00 100
20260507024017 46 217 7.0 11.0 0.00 0.00 0.00 100
20260507023517 46 214 7.0 9.0 0.00 0.00 0.00 100
20260507023018 46 211 9.0 11.0 0.00 0.00 0.00 100
20260507022517 46 244 9.0 11.0 0.00 0.00 0.00 100
20260507022018 46 224 7.0 9.0 0.00 0.00 0.00 100
20260507021518 46 228 11.0 13.0 0.00 0.00 0.00 100
20260507021017 46 240 9.0 11.0 0.00 0.00 0.00 100
20260507020525 46 238 9.0 11.0 0.00 0.00 0.00 100
20260507020017 46 246 7.0 9.0 0.00 0.00 0.00 100
20260507015517 46 237 9.0 11.0 0.00 0.00 0.00 100
20260507015017 46 232 11.0 13.0 0.00 0.00 0.00 100
20260507014517 46 230 11.0 13.0 0.00 0.00 0.00 100
20260507014018 46 236 11.0 13.0 0.00 0.00 0.00 100
20260507013517 46 234 11.0 13.0 0.00 0.00 0.00 100
20260507013019 46 221 7.0 9.0 0.00 0.00 0.00 100
20260507012518 46 225 7.0 9.0 0.00 0.00 0.00 100
20260507012011 46 240 9.0 11.0 0.00 0.00 0.00 100
20260507011517 46 249 9.0 9.0 0.00 0.00 0.00 100
20260507011018 46 264 9.0 11.0 0.00 0.00 0.00 100
20260507010018 46 267 9.0 11.0 0.00 0.00 0.00 100
20260507005516 46 267 11.0 13.0 0.00 0.00 0.00 100
20260507005017 46 269 9.0 11.0 0.00 0.00 0.00 100
20260507004511 46 281 11.0 13.0 0.00 0.00 0.00 100
20260507004017 48 266 9.0 16.0 0.00 0.00 0.00 100
20260507003517 48 271 13.0 18.0 0.00 0.00 0.00 100
20260507003017 48 270 13.0 16.0 0.00 0.00 0.00 100
20260507002518 48 271 11.0 13.0 0.00 0.00 0.00 100
20260507002019 48 271 9.0 11.0 0.00 0.00 0.00 100
20260507001519 48 275 11.0 13.0 0.00 0.00 0.00 100
20260507001017 48 265 9.0 11.0 0.00 0.00 0.00 100
20260507000518 46 263 7.0 9.0 0.00 0.00 0.00 100
20260507000018 46 244 4.0 4.0 0.00 0.00 0.00 100
20260506235518 46 88 0.0 2.0 0.00 0.00 0.00 100
20260506235017 46 89 4.0 7.0 0.00 0.00 0.00 100
20260506234517 46 91 7.0 7.0 0.00 0.00 0.00 100
20260506234018 46 79 7.0 7.0 0.00 0.00 0.00 100
20260506233518 46 71 9.0 11.0 0.00 0.00 0.00 100
20260506233017 46 77 9.0 9.0 0.00 0.00 0.00 100
20260506232521 48 61 9.0 9.0 0.00 0.00 0.00 100
20260506232019 46 67 9.0 9.0 0.00 0.00 0.00 100
20260506231517 48 83 13.0 16.0 0.00 0.00 0.00 100
20260506231017 48 65 16.0 18.0 0.00 0.00 0.00 100
20260506230518 46 90 11.0 13.0 0.00 0.00 0.00 100
20260506230018 48 139 9.0 11.0 0.00 0.00 0.00 100
20260506225517 48 181 9.0 9.0 0.00 0.00 0.00 100
20260506225018 48 193 11.0 13.0 0.00 0.00 0.00 100
20260506224517 48 208 7.0 9.0 0.00 0.00 0.00 100
20260506224018 48 216 9.0 11.0 0.00 0.00 0.00 100
20260506223518 48 227 7.0 11.0 0.00 0.00 0.00 100
20260506223017 48 232 11.0 16.0 0.00 0.00 0.00 100
20260506222520 48 224 7.0 9.0 0.00 0.00 0.00 100
20260506222023 48 237 11.0 16.0 0.00 0.00 0.00 100
20260506221517 48 240 11.0 13.0 0.00 0.00 0.00 100
20260506221017 48 229 9.0 16.0 0.00 0.00 0.00 100
20260506220518 48 234 7.0 9.0 0.00 0.00 0.00 100
20260506220018 48 232 7.0 9.0 0.00 0.00 0.00 100
20260506215517 48 207 7.0 11.0 0.00 0.00 0.00 100
20260506215017 48 160 7.0 7.0 0.00 0.00 0.00 100
20260506214517 54 195 2.0 4.0 0.00 0.00 0.00 100
20260506214018 52 60 0.0 0.0 0.00 0.00 0.00 100
20260506213517 52 61 4.0 4.0 0.00 0.00 0.00 100
20260506213018 52 49 7.0 7.0 0.00 0.00 0.00 100
20260506212517 50 55 9.0 9.0 0.00 0.00 0.00 100
20260506212027 50 68 11.0 13.0 0.00 0.00 0.00 100
20260506211518 50 58 13.0 13.0 0.00 0.00 0.00 100
20260506211017 50 54 13.0 13.0 0.00 0.00 0.00 100
20260506210517 50 64 13.0 16.0 0.00 0.00 0.00 100
20260506210017 50 44 16.0 16.0 0.00 0.00 0.00 100
20260506205517 50 36 13.0 13.0 0.00 0.00 0.00 100
20260506205010 50 25 11.0 13.0 0.00 0.00 0.00 100
20260506204518 50 21 11.0 11.0 0.00 0.00 0.00 100
20260506204010 50 357 0.0 7.0 0.00 0.00 0.00 100
20260506203518 50 346 0.0 4.0 0.00 0.00 0.00 100
20260506203018 50 18 0.0 2.0 0.00 0.00 0.00 100
20260506202510 50 12 0.0 2.0 0.00 0.00 0.00 100
20260506202019 50 11 7.0 11.0 0.00 0.00 0.00 100
20260506201524 50 12 4.0 9.0 0.00 0.00 0.00 100
20260506201017 52 11 9.0 11.0 0.00 0.00 0.00 100
20260506200518 54 31 4.0 4.0 0.00 0.00 0.00 100
20260506200018 52 35 9.0 11.0 0.00 0.00 0.00 100
20260506195517 50 36 7.0 7.0 0.00 0.00 0.00 100
20260506195025 54 27 7.0 7.0 0.00 0.00 0.00 100
20260506194517 54 35 11.0 11.0 0.00 0.00 0.00 100
20260506194018 54 53 11.0 11.0 0.00 0.00 0.00 100
20260506193518 52 47 13.0 13.0 0.00 0.00 0.00 100
20260506193018 52 52 13.0 13.0 0.00 0.00 0.00 100
20260506192517 52 50 13.0 13.0 0.00 0.00 0.00 100
20260506192018 52 53 13.0 13.0 0.00 0.00 0.00 100
20260506191517 52 56 13.0 13.0 0.00 0.00 0.00 100
20260506190019 48 72 11.0 11.0 0.00 0.00 0.00 100
20260506185522 48 61 13.0 13.0 0.00 0.00 0.00 100
20260506185018 48 62 13.0 16.0 0.00 0.00 0.00 100
20260506184517 48 60 13.0 16.0 0.00 0.00 0.00 100
20260506184018 48 54 16.0 16.0 0.00 0.00 0.00 100
20260506183517 48 60 16.0 18.0 0.00 0.00 0.00 100
20260506182517 48 69 13.0 16.0 0.00 0.00 0.00 100
20260506182019 48 70 16.0 16.0 0.00 0.00 0.00 100
20260506181517 48 74 18.0 20.0 0.00 0.00 0.00 100
20260506181016 50 73 16.0 20.0 0.00 0.00 0.00 100
20260506180517 50 85 16.0 20.0 0.00 0.00 0.00 100
20260506180017 50 86 13.0 18.0 0.00 0.00 0.00 100
20260506175518 52 108 11.0 13.0 0.00 0.00 0.00 100
20260506174017 52 146 7.0 7.0 0.00 0.00 0.00 100
20260506173517 52 138 9.0 9.0 0.00 0.00 0.00 100
20260506171511 54 178 7.0 9.0 0.00 0.00 0.00 96
20260506171019 55 215 7.0 7.0 0.00 0.00 0.00 90
20260506170510 55 203 4.0 4.0 0.00 0.00 0.00 84
20260506170011 55 304 4.0 4.0 0.00 0.00 0.00 83
20260506165511 57 304 2.0 4.0 0.00 0.00 0.00 82
20260506165018 57 304 2.0 4.0 0.00 0.00 0.00 77
20260506164517 57 304 2.0 2.0 0.00 0.00 0.00 77
20260506163517 57 304 2.0 2.0 0.00 0.00 0.00 76
20260506162516 57 304 0.0 0.0 0.00 0.00 0.00 76
20260506162024 57 304 2.0 2.0 0.00 0.00 0.00 75
20260506161518 57 304 2.0 4.0 0.00 0.00 0.00 75
20260506161017 57 304 2.0 2.0 0.00 0.00 0.00 75
20260506160518 57 304 0.0 0.0 0.00 0.00 0.00 75
20260506160018 57 304 0.0 0.0 0.00 0.00 0.00 77
20260506155518 57 304 0.0 0.0 0.00 0.00 0.00 79
20260506155011 57 304 0.0 0.0 0.00 0.00 0.00 78
20260506154517 57 304 0.0 0.0 0.00 0.00 0.00 77
20260506154010 57 304 0.0 2.0 0.00 0.00 0.00 78
20260506153525 57 304 2.0 4.0 0.00 0.00 0.00 77
20260506153017 57 264 4.0 4.0 0.00 0.00 0.00 77
20260506152517 57 316 4.0 7.0 0.00 0.00 0.00 77
20260506152018 57 286 2.0 4.0 0.00 0.00 0.00 75
20260506151517 57 283 4.0 7.0 0.00 0.00 0.00 77
20260506151017 57 265 4.0 7.0 0.00 0.00 0.00 76
20260506150518 57 299 4.0 4.0 0.00 0.00 0.00 77
20260506150017 57 285 7.0 9.0 0.00 0.00 0.00 75
20260506145518 59 283 7.0 9.0 0.00 0.00 0.00 74
20260506145017 61 290 4.0 7.0 0.00 0.00 0.00 74
20260506144518 59 236 9.0 11.0 0.00 0.00 0.00 73
20260506144025 59 246 7.0 11.0 0.00 0.00 0.00 74
20260506143518 59 269 4.0 7.0 0.00 0.00 0.00 78
20260506143018 61 269 4.0 7.0 0.00 0.00 0.00 77
20260506142518 61 228 4.0 7.0 0.00 0.00 0.00 77
20260506142019 61 279 2.0 7.0 0.00 0.00 0.00 80
20260506141518 59 233 7.0 9.0 0.00 0.00 0.00 79
20260506141016 59 226 2.0 4.0 0.00 0.00 0.00 83
20260506140518 59 263 7.0 11.0 0.00 0.00 0.00 83
20260506140018 61 267 2.0 4.0 0.00 0.00 0.00 85
20260506135518 59 297 0.0 2.0 0.00 0.00 0.00 88
20260506135018 59 252 2.0 7.0 0.00 0.00 0.00 88
20260506134515 59 259 7.0 9.0 0.00 0.00 0.00 90
20260506134009 59 241 7.0 11.0 0.00 0.00 0.00 90
20260506133518 59 221 9.0 11.0 0.00 0.00 0.00 92
20260506133017 59 229 4.0 9.0 0.00 0.00 0.00 94
20260506132517 57 236 11.0 13.0 0.00 0.00 0.00 93
20260506132019 57 244 11.0 16.0 0.00 0.00 0.00 93
20260506131517 59 260 4.0 9.0 0.00 0.00 0.00 97
20260506131017 59 256 7.0 11.0 0.00 0.00 0.00 100
20260506130524 57 240 9.0 11.0 0.00 0.00 0.00 100
20260506130018 57 254 9.0 11.0 0.00 0.00 0.00 100
20260506125518 57 239 13.0 16.0 0.00 0.00 0.00 100
20260506125017 57 224 13.0 16.0 0.00 0.00 0.00 100
20260506124518 59 232 7.0 11.0 0.00 0.00 0.00 100
20260506124018 57 243 7.0 9.0 0.00 0.00 0.00 100
20260506123518 59 205 4.0 7.0 0.00 0.00 0.00 100
20260506123017 57 241 9.0 16.0 0.00 0.00 0.00 100
20260506122517 57 242 11.0 16.0 0.00 0.00 0.00 100
20260506122019 55 248 4.0 11.0 0.00 0.00 0.00 100
20260506121517 55 253 11.0 16.0 0.00 0.00 0.00 100
20260506121017 55 248 9.0 16.0 0.00 0.00 0.00 100
20260506120518 55 229 7.0 11.0 0.00 0.00 0.00 100
20260506120017 55 215 9.0 11.0 0.00 0.00 0.00 100
20260506115517 55 241 7.0 9.0 0.00 0.00 0.00 100
20260506115017 55 233 11.0 13.0 0.00 0.00 0.00 100
20260506114517 54 254 9.0 11.0 0.00 0.00 0.00 100
20260506114016 54 231 13.0 13.0 0.00 0.00 0.00 100
20260506113517 55 242 9.0 13.0 0.00 0.00 0.00 100
20260506113018 54 222 9.0 11.0 0.00 0.00 0.00 100
20260506112517 54 241 11.0 13.0 0.00 0.00 0.00 100
20260506112020 54 245 11.0 13.0 0.00 0.00 0.00 100
20260506111518 54 250 9.0 16.0 0.00 0.00 0.00 100
20260506111018 52 247 11.0 16.0 0.00 0.00 0.00 100
20260506110517 54 238 11.0 13.0 0.00 0.00 0.00 100
20260506110017 52 249 11.0 13.0 0.00 0.00 0.00 100
20260506105518 52 237 9.0 11.0 0.00 0.00 0.00 100
20260506105018 52 235 9.0 16.0 0.00 0.00 0.00 100
20260506104519 52 215 7.0 11.0 0.00 0.00 0.00 100
20260506104017 52 226 9.0 11.0 0.00 0.00 0.00 100
20260506103517 52 233 9.0 13.0 0.00 0.00 0.00 100
20260506103018 52 250 13.0 16.0 0.00 0.00 0.00 100
20260506102517 52 223 9.0 11.0 0.00 0.00 0.00 100
20260506102024 52 226 9.0 13.0 0.00 0.00 0.00 100
20260506101518 52 235 9.0 11.0 0.00 0.00 0.00 100
20260506101017 50 233 7.0 11.0 0.00 0.00 0.00 100
20260506100517 50 242 9.0 11.0 0.00 0.00 0.00 100
20260506100017 50 246 7.0 9.0 0.00 0.00 0.00 100
20260506095518 50 246 9.0 13.0 0.00 0.00 0.00 100
20260506095018 50 248 11.0 11.0 0.00 0.00 0.00 100
20260506094518 50 248 11.0 13.0 0.00 0.00 0.00 100
20260506094018 50 248 11.0 16.0 0.00 0.00 0.00 100
20260506093518 50 242 9.0 13.0 0.00 0.00 0.00 100
20260506093018 50 245 11.0 13.0 0.00 0.00 0.00 100
20260506092522 50 243 7.0 9.0 0.00 0.00 0.00 100
20260506092021 48 240 7.0 11.0 0.00 0.00 0.00 100
20260506091517 48 238 11.0 13.0 0.00 0.00 0.00 100
20260506091017 48 255 9.0 11.0 0.00 0.00 0.00 100
20260506090518 48 247 11.0 16.0 0.00 0.00 0.00 100
20260506090017 48 258 11.0 16.0 0.00 0.00 0.00 100
20260506085518 48 259 11.0 16.0 0.00 0.00 0.00 100
20260506085017 48 256 13.0 16.0 0.00 0.00 0.00 100
20260506084517 48 251 13.0 16.0 0.00 0.00 0.00 100
20260506084017 48 256 11.0 16.0 0.00 0.00 0.00 100
20260506083516 48 242 11.0 13.0 0.00 0.00 0.00 100
20260506083018 48 231 9.0 13.0 0.00 0.00 0.00 100
20260506082518 48 232 4.0 4.0 0.00 0.00 0.00 100
20260506082019 48 242 9.0 11.0 0.00 0.00 0.00 100
20260506081517 48 219 7.0 11.0 0.00 0.00 0.00 100
20260506081019 48 252 9.0 11.0 0.00 0.00 0.00 100
20260506080524 46 244 9.0 9.0 0.00 0.00 0.00 100
20260506073517 46 245 9.0 11.0 0.00 0.00 0.00 100
20260506073017 46 253 9.0 11.0 0.00 0.00 0.00 100
20260506072518 46 245 11.0 13.0 0.00 0.00 0.00 100
20260506072020 46 237 9.0 11.0 0.00 0.00 0.00 100
20260506071517 46 241 11.0 16.0 0.00 0.00 0.00 100
20260506071017 46 258 13.0 16.0 0.00 0.00 0.00 100
20260506070518 46 249 16.0 20.0 0.00 0.00 0.00 100
20260506062021 46 251 16.0 20.0 0.00 0.00 0.00 100
20260506061518 46 264 11.0 18.0 0.00 0.00 0.00 100
20260506061017 46 258 11.0 20.0 0.00 0.00 0.00 100
20260506060517 46 248 13.0 18.0 0.00 0.00 0.00 100
20260506051018 46 243 9.0 11.0 0.00 0.00 0.00 100
20260506050518 46 254 7.0 11.0 0.00 0.00 0.00 100
20260506045019 46 249 11.0 11.0 0.00 0.00 0.00 100
20260506044517 46 245 11.0 13.0 0.00 0.00 0.00 100
20260506044017 46 256 7.0 13.0 0.00 0.00 0.00 100
20260506043517 46 256 13.0 18.0 0.00 0.00 0.00 100
20260506043017 46 261 11.0 13.0 0.00 0.00 0.00 100
20260506042517 46 247 13.0 18.0 0.00 0.00 0.00 100
20260506042023 46 255 11.0 11.0 0.00 0.00 0.00 100
20260506041517 46 265 11.0 13.0 0.00 0.00 0.00 100
20260506041018 46 253 9.0 13.0 0.00 0.00 0.00 100
20260506040517 46 261 9.0 13.0 0.00 0.00 0.00 100
20260506040017 46 247 11.0 13.0 0.00 0.00 0.00 100
20260506035518 46 257 11.0 13.0 0.00 0.00 0.00 100
20260506035017 46 267 11.0 13.0 0.00 0.00 0.00 100
20260506034518 46 263 11.0 13.0 0.00 0.00 0.00 100
20260506034018 46 258 7.0 11.0 0.00 0.00 0.00 100
20260506033518 46 252 11.0 13.0 0.00 0.00 0.00 100
20260506033017 46 241 9.0 11.0 0.00 0.00 0.00 100
20260506032517 46 251 9.0 13.0 0.00 0.00 0.00 100
20260506032022 46 241 13.0 16.0 0.00 0.00 0.00 100
20260506031518 46 242 11.0 16.0 0.00 0.00 0.00 100
20260506030518 46 246 11.0 13.0 0.00 0.00 0.00 100